Home   Weather   Jalalabad   Past weeks

Flag for Afghanistan Past Weather in Jalalabad, Afghanistan — Yesterday and Last 2 Weeks

Now
79 °F

Clear.


Feels Like: 81 °F
Forecast: 60 / 100 °F
Wind: No wind

Location: Peshawar Airport

Current Time: Sep 26, 2016 at 6:28:40 AM

Latest Report: Sep 26, 2016 at 5:30 AM


Visibility: 2 mi

Pressure: 29.71 "Hg (27.83 "Hg at 572m altitude)

Humidity: 70%

Dew Point: 68 °F

Location of JalalabadLocation

Past Weather in Jalalabad — Graph

°F

Jalalabad Temperature Yesterday

Maximum temperature yesterday: 93 °F (at 1:30 PM)
Minimum temperature yesterday: 77 °F (at 5:30 AM)
Average temperature yesterday: 84 °F

High & Low Weather Summary for the Past Weeks

 TemperatureHumidityPressure
High99 °F (Sep 16, 2:30 PM)83% (Sep 25, 5:30 AM)29.92 "Hg (Sep 25, 5:30 AM)
Low72 °F (Sep 14, 4:30 AM)36% (Sep 13, 12:30 PM)29.59 "Hg (Sep 11, 2:30 PM)
Average85 °F57%29.72 "Hg
* Reported Sep 11 3:30 AM — Sep 26 4:29 AM, Jalalabad, Weather by CustomWeather, © 2016

Note: Actual official high and low records may vary slightly from our data, if they occured in-between our weather recording intervals... More about our weather records

Advertising

Jalalabad Weather History for the Previous 24 Hours

Scroll right to see more
 ConditionsComfort  
Time TempWeatherWind HumidityBarometerVisibility
4:29 AM
Mon, Sep 26
79 °FClear.No wind70%29.71 "Hg2 mi
3:30 AM81 °FClear.No wind66%29.68 "Hg2 mi
2:30 AM81 °FHaze.5 mph66%29.68 "Hg2 mi
1:30 AM82 °FHaze.No wind66%29.68 "Hg2 mi
12:30 AM82 °FHaze.7 mph66%29.71 "Hg2 mi
11:30 PM
Sun, Sep 25
84 °FHaze.7 mph62%29.71 "Hg2 mi
10:30 PM84 °FHaze.9 mph62%29.71 "Hg2 mi
9:30 PM84 °FHaze.5 mph62%29.71 "Hg2 mi
8:30 PM86 °FHaze.7 mph59%29.71 "Hg2 mi
7:30 PM88 °FHaze.7 mph55%29.68 "Hg2 mi
7:00 PM88 °FHaze.7 mph55%29.68 "Hg2 mi
6:30 PM88 °FHaze.7 mph55%29.68 "Hg2 mi
6:00 PM90 °FHaze.5 mph55%29.68 "Hg2 mi
4:30 PM91 °FHaze.9 mph52%29.68 "Hg2 mi
3:30 PM93 °FHaze.12 mph53%29.68 "Hg2 mi
2:30 PM93 °FHaze.12 mph53%29.68 "Hg2 mi
1:30 PM93 °FHaze.7 mph53%29.71 "Hg2 mi
12:30 PM91 °FHaze.9 mph52%29.74 "Hg2 mi
11:30 AM90 °FHaze.7 mph55%29.77 "Hg2 mi
10:30 AM86 °FHaze.5 mph59%29.80 "Hg2 mi
9:30 AM84 °FHaze.5 mph62%29.80 "Hg1 mi
8:30 AM82 °FScattered clouds.5 mph66%29.80 "Hg1 mi
8:00 AM79 °FHaze.7 mph74%29.77 "Hg1 mi
7:30 AM79 °FHaze.7 mph74%29.77 "Hg1 mi
7:00 AM77 °FHaze.7 mph74%29.74 "Hg1 mi
6:30 AM77 °FHaze.7 mph74%29.74 "Hg1 mi
6:00 AM77 °FHaze.7 mph83%29.71 "Hg1 mi
Weather by CustomWeather, © 2016

See weather overviewHow to use our weather pages